Regional Weather Roundup
Issued by NWS Midland/Odessa, TX

Skip options and go directly to product.
Home | Oldest Version | Previous Version | Current Version | All | Graphics & Text | Save Text | Print | Product List | Glossary On

Skip product version selection by date and time.   
750
ASUS44 KMAF 051010
RWRMAF
MIDLAND AREA WEATHER ROUNDUP
NATIONAL WEATHER SERVICE MIDLAND TX
500 AM CDT WED AUG 05 2015

...IN SOUTHWEST TEXAS AND SOUTHEAST NEW MEXICO...

CITY           SKY/WX    TMP DP  RH WIND       PRES   REMARKS
ALPINE         CLEAR     65  59  79 SW5       30.19S
ANDREWS        FAIR      76  60  56 SW10      30.03R
ARTESIA        CLEAR     70  59  68 SW6       30.03S
BIG SPRING     CLEAR     75  59  56 S8        30.02S
CARLSBAD         N/A     73  54  51 S3        30.00R
DRYDEN           N/A     81  64  56 VRB6      29.98R
FORT STOCKTON  CLEAR     78  60  53 S12       30.01S
GUAD PASS      CLEAR     77  52  41 SW8       30.20R
HOBBS            N/A     73  63  68 S9        30.06S
MARFA          CLEAR     61  57  88 N6        30.18S
MIDLAND AIRPK  CLEAR     82  60  46 SW9       30.01S
MIDLAND INTL   CLEAR     80  61  52 S9        30.00S
ODESSA         CLEAR     81  60  48 S15       30.02R
PECOS          CLEAR     76  58  53 E5        29.98R
PRESIDIO       FAIR      80  62  54 MISG      30.01S
SEMINOLE       CLEAR     73  61  64 SW5       30.04S
SNYDER         CLEAR     74  60  62 S6        29.99R
WINK           CLEAR     78  61  55 SE7       29.99R
$$
...OTHER STATIONS IN TEXAS...

CITY           SKY/WX    TMP DP  RH WIND       PRES   REMARKS
ABILENE        CLEAR     80  64  58 S9        29.96R
AMARILLO       CLEAR     74  64  71 S14       30.01F
AUSTIN         MOCLDY    78  75  90 S8        29.98R
BROWNSVILLE    CLEAR    N/A N/A N/A S6        29.95S
CORPUS CHRISTI PTCLDY    79  77  94 SE7       29.95F
DALLAS FTW     PTCLDY    84  69  60 S14       29.92S
DEL RIO        CLEAR     82  73  74 E9        29.94R
EL PASO        PTCLDY    76  57  51 E6        30.04R
HOUSTON INT    PTCLDY    80  77  90 S3        29.98S
LUBBOCK        PTCLDY    79  62  56 SW12      30.01S
SAN ANGELO     CLEAR     80  65  59 S10       29.97R
SAN ANTONIO    MOCLDY    80  73  79 S9        29.99S
WACO           CLEAR     81  73  76 S16       29.95S
WICHITA FALLS  NOT AVBL
$$
...OTHER LOCATIONS IN NEW MEXICO...

CITY           SKY/WX    TMP DP  RH WIND       PRES   REMARKS
ALAMAGORDO     CLEAR     72  48  43 NE5       30.07R
ALBUQUERQUE    CLEAR     72  43  35 N7        30.18R
CANNON AFB     PTCLDY    70  58  65 SW5       30.06R
CLOVIS         PTCLDY    66  61  82 S8        30.07S
HOLLOMAN AFB     N/A     72  46  39 E2        30.05R
ROSWELL        CLEAR     71  57  61 S6        30.02R
RUIDOSO          N/A    N/A N/A N/A MISG        N/A
SANTA FE       CLEAR     61  40  45 NE10      30.24R
TRUTH OR CONSE CLEAR     75  51  43 W9        30.11R
TUCUMCARI      CLEAR     73  57  57 W9        30.00F
$$

USA.gov is the U.S. government's official web portal to all federal, state and local government web resources and services.